Погода в Диу

Индия     20°42′55″N   70°58′56″E
темп.,
°C
ветер,
м/с
пор.,
м/с
влажн.,
%
обл.,
%
осадки,
мм/ч
давл.,
гПа
погр.,
м
24 июня, чт
чт2423:30+29з687598 0.1 1007744
02:30+28зюз577561 0.4 1006695
05:30+28з477696 0.4 1005703
08:30+29з686754 1.9 10071013
11:30+32зюз785998 2.4 10071368
14:30+32зюз895721 0.0 10051390
17:30+31зюз786240 0.1 10051046
20:30+29зюз797239 0.0 1006827
25 июня, пт
пт2523:30+29з7975100 0.1 1007805
02:30+28з697585 0.1 1005910
05:30+28з697579 0.1 1005825
08:30+30з8965100 0.1 10071071
11:30+31зюз886155 0.2 10061391
14:30+32зюз895857 0.1 10051503
17:30+31зюз896521 0.1 10041223
20:30+29з687073 0.0 1005862
26 июня, сб
сб2623:30+29зюз687162 0.1 1006874
02:30+28зюз797498 0.2 1005759
05:30+28з697119 0.4 1005736
08:30+29зюз7968100 0.1 1007920
11:30+30зюз786357 0.2 10071285
14:30+32зюз88564 0.0 10051424
17:30+31зюз996416 0.1 10051211
20:30+29з69740 0.0 1006868
27 июня, вс
вс2723:30+29з5870100 0.1 1007728
02:30+29з6969100 0.1 1006507
05:30+28з597091 0.1 1007476
08:30+30з78678 0.1 1009900
11:30+32зюз88577 0.1 10091428
14:30+32зюз8853100 0.0 10071338
17:30+31зюз8858100 0.0 10071031
20:30+30з796641 0.0 1008720
28 июня, пн
пн2823:30+29зюз7107640 0.0 1008738
02:30+28з687919 0.0 1007771
05:30+28з68775 0.0 1007767
08:30+30з676814 0.0 10081082
11:30+32зюз77566 0.1 10081396
14:30+33зюз88565 0.0 10061311
17:30+31зюз89625 0.0 1005893
20:30+29з79720 0.0 1007685